Location: South Peacham
(44.3148°N, 72.1659°W)
Time: 13:12:16
(UTC+00:00)

Daily predictions for brighter satellites

Satellite Brightness Start Highest point End
(mag) Time Altitude Azimuth Time Altitude Azimuth Time Altitude Azimuth
Cosmos 1980 Rocket 3.7 21:34:57 10° SE 21:38:33 18° E 21:42:09 10° ENE
GEOS 3 Rocket 4.0 21:33:33 10° NE 21:38:51 56° ESE 21:44:05 10° SSW
Cosmos 1933 4.3 21:37:52 10° SSE 21:41:04 26° E 21:44:16 10° NNE
Cosmos 1777 Rocket 4.1 21:37:38 10° S 21:42:51 68° ESE 21:48:04 10° NNE
Cosmos 1743 2.3 21:39:54 10° N 21:43:06 53° E 21:46:16 10° SSE
Okean 1-7 Rocket 4.2 21:40:04 10° N 21:44:05 34° ENE 21:48:03 10° SE
CORIOLIS 4.3 21:39:39 10° SE 21:44:48 52° ENE 21:49:58 10° N
Cosmos 1602 Rocket 3.7 21:40:49 10° N 21:45:06 51° ENE 21:49:19 10° SSE
Cosmos 2263 Rocket 3.2 21:45:08 10° N 21:49:43 25° NE 21:54:18 10° ESE
CENTAUR R/B 4.0 21:44:57 10° W 21:50:05 29° NNW 21:56:18 10° NNE
SL-16 R/B 2.7 21:43:57 10° NNE 21:50:12 84° WNW 21:56:23 10° SSW
YAOGAN 1 4.3 21:48:51 10° E 21:50:20 12° ENE 21:51:50 10° NE
NOSS 2-3 (C) 4.3 21:52:35 10° S 21:55:28 24° ESE 21:58:04 11° ENE
EXPRESS MD2 4.4 21:54:07 10° S 21:55:44 16° SE 21:57:42 10° E
IRIDIUM 114 4.4 21:50:35 10° N 21:55:45 57° E 22:00:52 10° SSE
Cosmos 2151 2.9 21:52:21 10° N 21:56:30 65° E 22:00:38 10° SSE
SAR-Lupe-4 4.1 21:56:23 10° SE 21:59:41 37° ENE 22:02:59 10° N
IGS 5A 3.5 21:55:48 10° S 21:59:44 78° WSW 22:03:44 10° NNW
IRS-1C 4.3 21:56:53 10° SE 22:02:02 52° ENE 22:07:12 10° N
Cosmos 1486 Rocket 4.4 21:57:45 10° SSW 22:02:54 64° WNW 22:08:08 10° NNE
Cosmos 1782 3.7 22:00:53 10° SSW 22:04:20 45° WNW 22:07:49 10° N
IRIDIUM 103 4.3 21:59:42 10° N 22:04:56 70° E 22:10:07 10° S
Cosmos 2227 Rocket 2.3 22:01:23 10° NNW 22:06:54 51° ENE 22:12:22 10° SE
Cosmos 1953 Rocket 4.4 22:05:05 10° NNE 22:08:55 28° ENE 22:12:45 10° SE
SAR-Lupe-1 4.4 22:07:16 10° SE 22:10:42 43° ENE 22:14:09 10° N
USA 238 DEB 4.0 22:05:22 10° S 22:10:53 39° ESE 22:16:08 13° NE
USA 238 4.0 22:05:30 10° S 22:11:00 39° ESE 22:16:13 13° NE
MOS 1 Rocket 3.6 22:08:31 10° SE 22:13:14 49° ENE 22:18:14 10° N
Cosmos 990 Rocket 4.0 22:08:17 10° S 22:13:19 62° ESE 22:18:25 10° NNE
Cosmos 2084 Rocket 3.4 22:09:28 10° NW 22:13:42 89° ENE 22:17:54 10° SE
NOSS 7 (H) 4.2 22:13:15 10° NNW 22:16:08 55° NE 22:19:23 10° SE
Aureole 1 Rocket 4.1 22:13:21 10° SSE 22:17:08 30° E 22:20:55 13° NE
Cosmos 1867 3.5 22:12:38 10° NNW 22:18:08 78° NE 22:23:34 10° SE
Cosmos 1825 Rocket 3.5 22:13:57 10° N 22:18:14 57° ENE 22:22:27 10° SSE
Cosmos 1697 Rocket 2.6 22:12:43 10° SSW 22:18:18 81° ESE 22:23:56 10° NNE
USA 215 4.4 22:15:51 13° NE 22:20:38 29° N 22:26:05 10° WNW
Cosmos 1900 4.3 22:16:04 10° NNW 22:21:08 89° NE 22:26:04 10° SSE
Cosmos 2098 Rocket 4.2 22:17:12 10° SSW 22:21:11 46° WNW 22:25:53 10° N
NOSS 2-3 (E) 3.1 22:17:53 10° SSW 22:21:33 64° SE 22:24:06 19° NE
NOSS 2-3 (D) 3.2 22:18:24 10° SSW 22:22:04 59° ESE 22:24:33 19° NE
CZ-2D R/B 4.3 22:19:16 10° SE 22:22:48 27° ENE 22:26:18 10° N
IRIDIUM 106 4.4 22:18:00 10° N 22:23:15 82° W 22:28:28 10° S
ARIANE 5 R/B 2.4 22:19:07 10° SSE 22:24:10 82° ENE 22:29:20 10° NNW
Cosmos 1655 Rocket 4.0 22:23:04 10° N 22:29:13 57° ENE 22:35:18 10° SSE
UNK 4.2 22:25:39 10° N 22:30:11 63° WNW 22:34:39 10° SSW
Cosmos 1076 Rocket 3.5 22:30:57 10° N 22:35:11 55° E 22:39:25 10° SSE
SJ-6F 4.2 22:31:52 10° SSE 22:35:49 70° ENE 22:39:49 10° N
ATLAS CENTAUR R/B 4.2 22:34:54 10° W 22:36:30 13° WSW 22:38:05 10° SW
USA 81 4.3 22:32:01 10° N 22:37:02 43° E 22:42:01 10° SSE
SAR-Lupe-3 3.6 22:36:47 49° ENE 22:37:04 53° ESE 22:39:30 10° S
SMAP 3.9 22:33:20 10° S 22:37:53 55° W 22:42:28 10° NNW
COSMOS 2455 4.2 22:35:01 10° SE 22:38:57 18° ESE 22:39:11 18° E
COSMO-SKYMED 1 3.2 22:38:13 27° ENE 22:39:11 30° E 22:42:48 10° SSE
Cosmos 2058 Rocket 3.5 22:35:40 10° SSE 22:39:49 39° E 22:42:19 21° NE
SPOT 1/Viking Rocket 3.6 22:36:51 10° SSE 22:41:56 58° ENE 22:47:02 10° N
Landsat 7 4.2 22:38:00 10° S 22:42:36 63° W 22:47:14 10° NNW
Gbstr 26 Del rocket 3.0 22:40:05 10° WSW 22:44:06 57° NNW 22:45:43 30° NE
Cosmos 1606 Rocket 4.3 22:46:07 10° SSW 22:50:26 55° WNW 22:54:49 10° N
IRS-P3 4.2 22:46:08 10° SSE 22:51:27 83° WSW 22:56:48 10° NNW
Lacrosse 5 rocket 3.4 22:50:31 10° NNW 22:51:45 11° N 22:52:02 11° N
Cosmos 2082 4.1 22:48:55 10° NNW 22:54:16 39° ENE 22:56:34 28° ESE
SL-19 R/B 4.4 22:50:01 10° SE 22:55:10 48° ENE 23:00:35 10° N
Cosmos 2297 Rocket 4.3 22:54:24 10° NW 22:59:10 28° WSW 23:03:55 10° SSW
NOSS 3-2 (C) 4.4 22:56:24 10° WSW 23:01:07 35° NW 23:05:30 15° NNE
Cosmos 1538 Rocket 3.9 22:56:38 10° NNW 23:01:57 77° ENE 23:07:16 10° SSE
Resurs 1-3 3.5 22:58:15 10° SSE 23:02:27 57° ENE 23:06:41 10° N
CZ-4C R/B 3.8 22:57:00 10° NW 23:04:09 55° WSW 23:12:43 10° SSE
SL-16 R/B 4.0 23:00:43 10° SE 23:01:52 14° SE 23:01:52 14° SE
Meteor 1-26 Rocket 4.0 23:03:57 10° S 23:09:18 68° E 23:12:48 22° NNE
Okean 1 3.6 23:10:33 10° S 23:13:12 45° SSE 23:13:12 45° SSE
Nadezhda 2 Rocket 4.3 23:11:35 10° N 23:17:40 66° E 23:23:43 10° SSE
Cosmos 2219 3.1 23:14:22 10° NNW 23:20:08 74° ENE 23:24:18 19° SSE
Cosmos 1980 Rocket 2.4 23:16:14 10° SSW 23:21:53 71° WNW 23:25:03 27° NNE
Cosmos 1553 Rocket 3.8 23:17:23 10° S 23:23:30 73° E 23:29:05 13° NNE
Spot 4 Rocket 4.0 23:18:49 10° SSE 23:23:55 84° WSW 23:29:04 10° NNW
Cosmos-2242 3.1 23:20:10 10° SSW 23:24:23 74° W 23:25:43 43° N
YAOGAN 1 2.6 23:21:19 10° S 23:25:34 77° W 23:29:50 10° NNW
Cosmos 1844 Rocket 4.2 23:21:34 10° N 23:23:59 21° NNE 23:23:59 21° NNE
Cosmos 1898 Rocket 3.4 23:24:03 10° SSW 23:29:12 82° WNW 23:30:53 44° NNE
SKYMED 2 4.4 23:27:41 19° N 23:30:29 48° WNW 23:34:40 10° SW
OceanSat 1 rocket 4.5 23:26:39 10° SSE 23:31:24 88° ENE 23:36:09 10° NNW
Cosmos 2263 Rocket 2.7 23:28:27 10° NNW 23:34:02 61° WSW 23:39:37 10° S
SL-24 R/B - RUBIN 2 4.3 23:29:51 10° SSW 23:34:30 50° SSE 23:34:30 50° SSE
Cosmos 2369 3.6 23:29:35 10° SSW 23:35:19 85° ESE 23:36:34 57° NNE
Cosmos 923 Rocket 4.3 23:38:34 10° NNW 23:42:32 52° N 23:42:32 52° N
Cosmos 1937 Rocket 3.5 23:42:28 10° SSW 23:47:39 77° WNW 23:47:52 75° NW
Cosmos 2227 Rocket 4.3 23:46:03 10° NW 23:50:34 25° WSW 23:55:05 10° SSW
